Tuttle Creek Lake Weather Center

Moon Phase Calendar



Tuttle Creek Lake Water Level
Online Cameras

 


      

Current Conditions in Riley
11/28/2020 2:06:19 AM

31°F
Feels Like 22
Clear
Humidity
79%
Pressure
30.27"
Wind
7.7 mph (SW)
Dew Point
26°F
UV Index
0/10 (Low)
Visibility
6 mi

Hourly Forecast

Date & Time Sat, Nov 28
2:00 AM
Sat, Nov 28
3:00 AM
Sat, Nov 28
4:00 AM
Sat, Nov 28
5:00 AM
Sat, Nov 28
6:00 AM
Sat, Nov 28
7:00 AM
Sat, Nov 28
8:00 AM
Sat, Nov 28
9:00 AM
Sat, Nov 28
10:00 AM
Sat, Nov 28
11:00 AM
Sat, Nov 28
12:00 PM
Sat, Nov 28
1:00 PM
Sat, Nov 28
2:00 PM
Sat, Nov 28
3:00 PM
Sat, Nov 28
4:00 PM
Sat, Nov 28
5:00 PM
Sat, Nov 28
6:00 PM
Sat, Nov 28
7:00 PM
Sat, Nov 28
8:00 PM
Sat, Nov 28
9:00 PM
Sat, Nov 28
10:00 PM
Sat, Nov 28
11:00 PM
Sun, Nov 29
12:00 AM
Sun, Nov 29
1:00 AM
Sun, Nov 29
2:00 AM
Sun, Nov 29
3:00 AM
Sun, Nov 29
4:00 AM
Sun, Nov 29
5:00 AM
Sun, Nov 29
6:00 AM
Sun, Nov 29
7:00 AM
Sun, Nov 29
8:00 AM
Sun, Nov 29
9:00 AM
Sun, Nov 29
10:00 AM
Sun, Nov 29
11:00 AM
Sun, Nov 29
12:00 PM
Sun, Nov 29
1:00 PM
Sun, Nov 29
2:00 PM
Sun, Nov 29
3:00 PM
Sun, Nov 29
4:00 PM
Sun, Nov 29
5:00 PM
Sun, Nov 29
6:00 PM
Sun, Nov 29
7:00 PM
Sun, Nov 29
8:00 PM
Sun, Nov 29
9:00 PM
Sun, Nov 29
10:00 PM
Sun, Nov 29
11:00 PM
Mon, Nov 30
12:00 AM
Mon, Nov 30
1:00 AM
Condition
Clear

Clear

Clear

Clear

Clear

Clear

Clear

Clear

Clear

Clear

Clear

Clear

Clear

Clear

Clear

Clear

Clear

Clear

Clouds

Clouds

Clouds

Clouds

Clouds

Clouds

Clouds

Clouds

Clouds

Clouds

Clouds

Clouds

Clouds

Clouds

Clouds

Clouds

Clouds

Clear

Clear

Clear

Clear

Clouds

Clear

Clear

Clear

Clear

Clear

Clear

Clear

Clear
Temperature 31°F34°F35°F36°F36°F36°F36°F40°F44°F48°F51°F53°F54°F54°F53°F48°F46°F45°F44°F44°F43°F43°F42°F42°F42°F42°F43°F43°F43°F42°F41°F42°F44°F45°F45°F44°F44°F42°F41°F38°F35°F34°F33°F32°F31°F30°F28°F27°F
Feels Like 22°F25°F26°F26°F26°F26°F27°F30°F34°F37°F40°F42°F44°F44°F44°F39°F37°F36°F35°F34°F33°F33°F33°F33°F31°F31°F32°F32°F31°F31°F29°F27°F26°F26°F26°F26°F26°F25°F25°F24°F23°F22°F21°F20°F19°F18°F18°F17°F
Cloudiness 1%1%0%0%0%0%0%0%0%0%0%0%0%0%0%0%2%3%52%61%49%53%49%78%88%76%64%62%69%98%85%84%85%76%64%0%0%10%7%12%10%0%0%0%0%0%0%0%
Visibility 6 mi6 mi6 mi6 mi6 mi6 mi6 mi6 mi6 mi6 mi6 mi6 mi6 mi6 mi6 mi6 mi6 mi6 mi6 mi6 mi6 mi6 mi6 mi6 mi6 mi6 mi6 mi6 mi6 mi6 mi6 mi6 mi6 mi6 mi6 mi6 mi6 mi6 mi6 mi6 mi6 mi6 mi6 mi6 mi6 mi6 mi6 mi6 mi
Precipitation 0%0%0%0%0%0%0%0%0%0%0%0%0%0%0%0%0%0%0%0%0%0%0%0%0%0%0%0%0%0%0%0%0%0%0%0%0%0%0%0%0%0%0%0%0%0%0%0%
Humidity 79%78%80%81%81%83%82%70%61%54%50%47%46%45%50%58%64%67%69%69%70%69%69%69%73%79%81%80%77%75%69%62%59%58%56%56%57%58%61%67%74%77%81%84%84%83%83%83%
Dew Point 26°F28°F30°F31°F31°F29°F29°F30°F31°F32°F33°F34°F34°F34°F35°F34°F34°F35°F35°F35°F34°F34°F33°F33°F34°F36°F37°F37°F36°F35°F29°F25°F27°F28°F25°F23°F22°F20°F19°F18°F17°F17°F17°F16°F15°F14°F12°F12°F
Pressure 30.27"30.27"30.27"30.24"30.24"30.24"30.24"30.24"30.24"30.21"30.18"30.15"30.12"30.09"30.06"30.06"30.06"30.06"30.06"30.06"30.06"30.06"30.06"30.06"30.03"30.03"30.03"30.03"30.06"30.06"30.09"30.15"30.18"30.21"30.24"30.24"30.27"30.27"30.33"30.36"30.36"30.39"30.42"30.45"30.45"30.47"30.45"30.45"
Wind Speed 7.7 mph7.6 mph8.7 mph10.2 mph10.9 mph10.2 mph9.6 mph11.4 mph11.5 mph12.2 mph13.1 mph13.6 mph12.5 mph12.2 mph10.8 mph9.7 mph9.1 mph9.9 mph9.8 mph12.3 mph11.8 mph12 mph10.8 mph10.2 mph12 mph14.8 mph14.7 mph13.8 mph15.3 mph14.4 mph13.4 mph20.7 mph24.8 mph25.7 mph25.8 mph25.3 mph24.4 mph23.4 mph21.8 mph16.8 mph14.4 mph14.8 mph14.2 mph13.3 mph12.6 mph12.2 mph10.6 mph10.2 mph
Wind
Direction
234°
SW
233°
SW
232°
SW
232°
SW
231°
SW
228°
SW
227°
SW
231°
SW
230°
SW
225°
SW
223°
SW
223°
SW
224°
SW
218°
SW
208°
SSW
200°
SSW
204°
SSW
205°
SSW
202°
SSW
202°
SSW
213°
SSW
211°
SSW
225°
SW
227°
SW
222°
SW
232°
SW
266°
W
273°
W
291°
WNW
305°
NW
341°
NNW

N

N

N
359°
N
356°
N
354°
N
353°
N
352°
N
350°
N
347°
NNW
349°
N
351°
N
353°
N
350°
N
347°
NNW
340°
NNW
331°
NNW

Daily Forecast

Date High Low Precip. Humidity
Today
Nov 28

Clear
54 °F
31 °F
0%
50%
Sunday
Nov 29

Clouds
45 °F
32 °F
0%
56%
Monday
Nov 30

Clear
43 °F
26 °F
0%
57%
Tuesday
Dec 1

Clouds
47 °F
29 °F
0%
56%
Wednesday
Dec 2

Clouds
37 °F
28 °F
0%
74%
Thursday
Dec 3

Clouds
37 °F
25 °F
0%
79%
Friday
Dec 4

Clear
48 °F
26 °F
0%
59%
Saturday
Dec 5

Clear
48 °F
33 °F
0%
55%
Sunday
Dec 6

Clear
52 °F
30 °F
0%
52%
Monday
Dec 7

Clear
49 °F
32 °F
0%
54%
Tuesday
Dec 8

Clear
47 °F
33 °F
0%
58%
Wednesday
Dec 9

Clear
57 °F
32 °F
0%
46%
Thursday
Dec 10

Clear
51 °F
39 °F
0%
50%
Friday
Dec 11

Clouds
53 °F
37 °F
0%
43%
Saturday
Dec 12

Clear
39 °F
27 °F
0%
72%
Sunday
Dec 13

Clear
40 °F
21 °F
0%
72%


Temperature 8-14 Day Outlook



Precipitation 8-14 Day Outlook




Quick Links
Tuttle Creek Lake News
Tuttle Creek Lake Photos
Tuttle Creek Lake Videos




About Us
Contact Us
Site Map
Search Site
Advertise With Us
   
TuttleCreek.LakesOnline.com
THE TUTTLE CREEK LAKE WEBSITE

Copyright 2020, Lakes Online
Privacy    |    Legal